This is the latest recevied weather packets stored in our database for station/object N3FAA. If no packets are shown the sender has not sent any weather packets the latest 10 day(s).
| Time | Temp. | Humidity | Pressure | Rain* | Wind** | Luminosity | Snow |
|---|---|---|---|---|---|---|---|
| 1778175020 | 27.78° C | 27% | 1014.1 hPa | 0 mm | - | 842 W/m² | - |
| 1778174715 | 26.67° C | 28% | 1014.3 hPa | 0 mm | - | 829 W/m² | - |
| 1778174412 | 26.67° C | 29% | 1014.4 hPa | 0 mm | - | 834 W/m² | - |
| 1778174108 | 26.11° C | 28% | 1014.5 hPa | 0 mm | - | 829 W/m² | - |
| 1778173806 | 26.11° C | 30% | 1014.4 hPa | 0 mm | - | 812 W/m² | - |
| 1778173502 | 26.11° C | 31% | 1014.5 hPa | 0 mm | - | 784 W/m² | - |
| 1778173198 | 25.56° C | 31% | 1014.6 hPa | 0 mm | - | 743 W/m² | - |
| 1778172894 | 25° C | 32% | 1014.3 hPa | 0 mm | - | 765 W/m² | - |
| 1778172591 | 25° C | 33% | 1014.5 hPa | 0 mm | - | 790 W/m² | - |
| 1778172288 | 24.44° C | 33% | 1014.5 hPa | 0 mm | - | 766 W/m² | - |
| 1778171984 | 24.44° C | 34% | 1014.7 hPa | 0 mm | - | 753 W/m² | - |
| 1778171682 | 24.44° C | 34% | 1014.8 hPa | 0 mm | - | 731 W/m² | - |
| 1778171379 | 23.89° C | 36% | 1014.7 hPa | 0 mm | - | 692 W/m² | - |
| 1778171074 | 23.89° C | 35% | 1014.7 hPa | 0 mm | - | 655 W/m² | - |
| 1778170772 | 22.78° C | 38% | 1014.7 hPa | 0 mm | - | 645 W/m² | - |
| 1778170467 | 22.78° C | 37% | 1014.7 hPa | 0 mm | - | 639 W/m² | - |
| 1778170164 | 22.78° C | 38% | 1015 hPa | 0 mm | - | 595 W/m² | - |
| 1778169860 | 22.78° C | 38% | 1014.6 hPa | 0 mm | - | 576 W/m² | - |
| 1778169556 | 22.22° C | 40% | 1014.6 hPa | 0 mm | - | 543 W/m² | - |
| 1778169252 | 22.22° C | 40% | 1014.8 hPa | 0 mm | - | 475 W/m² | - |
| 1778168950 | 21.67° C | 40% | 1014.7 hPa | 0 mm | - | 461 W/m² | - |
| 1778168646 | 21.67° C | 40% | 1014.8 hPa | 0 mm | - | 422 W/m² | - |
| 1778168344 | 21.11° C | 42% | 1014.7 hPa | 0 mm | - | 386 W/m² | - |
| 1778168040 | 21.11° C | 42% | 1014.8 hPa | 0 mm | - | 333 W/m² | - |
| 1778167736 | 21.11° C | 42% | 1014.9 hPa | 0 mm | - | 321 W/m² | - |
* Rain latest hour (hover to see other rain measurements)
** Current wind speed in m/s (hover to see current wind gust speed)